| time (UTC) | temp F | wind direction | speed MPH | gust MPH | rain 1hr in | rain 24hr in | rain mn in | humidity % | barometer mb |
| 20260504081708 | 58 | 124 | 0.0 | 2.0 | 0.03 | 0.47 | 0.47 | 95 | 1009.6 |
| 20260504081107 | 58 | 115 | 0.0 | 1.0 | 0.03 | 0.46 | 0.46 | 95 | 1009.6 |
| 20260503232945 | 58 | 212 | 2.0 | 5.0 | 0.02 | 0.22 | 0.22 | 91 | 1010.2 |
| 20260503232345 | 59 | 193 | 2.0 | 6.0 | 0.02 | 0.22 | 0.22 | 91 | 1010.2 |
| 20260503231744 | 59 | 71 | 2.0 | 6.0 | 0.02 | 0.22 | 0.22 | 91 | 1010.2 |
| 20260503231144 | 59 | 76 | 2.0 | 4.0 | 0.02 | 0.22 | 0.22 | 90 | 1010.2 |
| 20260503230545 | 60 | 90 | 1.0 | 4.0 | 0.02 | 0.22 | 0.22 | 89 | 1010.2 |
| 20260503225943 | 60 | 157 | 0.0 | 4.0 | 0.02 | 0.22 | 0.22 | 88 | 1010.3 |
| 20260503225343 | 60 | 132 | 0.0 | 1.0 | 0.00 | 0.20 | 0.20 | 88 | 1010.3 |
| 20260503224742 | 60 | 61 | 0.0 | 0.0 | 0.00 | 0.20 | 0.20 | 87 | 1010.3 |
| 20260503224142 | 60 | 61 | 0.0 | 0.0 | 0.00 | 0.20 | 0.20 | 88 | 1010.2 |
| 20260503223542 | 60 | 61 | 0.0 | 0.0 | 0.00 | 0.20 | 0.20 | 89 | 1010.2 |
| 20260503222941 | 60 | 61 | 0.0 | 0.0 | 0.00 | 0.20 | 0.20 | 89 | 1010.1 |
| 20260503222341 | 60 | 61 | 0.0 | 0.0 | 0.00 | 0.20 | 0.20 | 89 | 1010.2 |
| 20260503221741 | 60 | 61 | 0.0 | 0.0 | 0.00 | 0.20 | 0.20 | 89 | 1010.2 |
| 20260503221141 | 60 | 61 | 0.0 | 0.0 | 0.00 | 0.20 | 0.20 | 89 | 1010.1 |
| 20260503220540 | 60 | 61 | 0.0 | 0.0 | 0.00 | 0.20 | 0.20 | 90 | 1010.1 |
| 20260503215940 | 60 | 61 | 0.0 | 0.0 | 0.00 | 0.20 | 0.20 | 90 | 1010.1 |
| 20260503215339 | 60 | 61 | 0.0 | 0.0 | 0.00 | 0.20 | 0.20 | 89 | 1010.1 |
| 20260503214740 | 60 | 61 | 0.0 | 0.0 | 0.00 | 0.20 | 0.20 | 89 | 1010.2 |
| 20260503214139 | 60 | 61 | 0.0 | 0.0 | 0.00 | 0.20 | 0.20 | 89 | 1010.2 |
| 20260503213539 | 60 | 68 | 0.0 | 1.0 | 0.00 | 0.20 | 0.20 | 90 | 1010.1 |
| 20260503212938 | 60 | 153 | 0.0 | 0.0 | 0.00 | 0.20 | 0.20 | 90 | 1010.1 |
| 20260503212338 | 60 | 153 | 0.0 | 0.0 | 0.00 | 0.20 | 0.20 | 90 | 1010.1 |
| 20260503211737 | 60 | 153 | 0.0 | 0.0 | 0.00 | 0.20 | 0.20 | 90 | 1010.1 |
| 20260503211137 | 60 | 153 | 0.0 | 0.0 | 0.00 | 0.20 | 0.20 | 90 | 1010.1 |
| 20260503210537 | 60 | 153 | 0.0 | 0.0 | 0.00 | 0.20 | 0.20 | 90 | 1010.2 |
| 20260503205937 | 60 | 153 | 0.0 | 0.0 | 0.00 | 0.20 | 0.20 | 90 | 1010.3 |
| 20260503205336 | 60 | 151 | 0.0 | 0.0 | 0.00 | 0.20 | 0.20 | 89 | 1010.3 |
| 20260503204736 | 60 | 153 | 0.0 | 0.0 | 0.00 | 0.20 | 0.20 | 89 | 1010.3 |
| 20260503204136 | 61 | 153 | 0.0 | 0.0 | 0.00 | 0.20 | 0.20 | 88 | 1010.2 |
| 20260503203535 | 61 | 153 | 0.0 | 1.0 | 0.00 | 0.20 | 0.20 | 88 | 1010.2 |
| 20260503202935 | 61 | 153 | 0.0 | 0.0 | 0.00 | 0.20 | 0.20 | 87 | 1010.2 |
| 20260503202334 | 61 | 153 | 0.0 | 0.0 | 0.00 | 0.20 | 0.20 | 87 | 1010.1 |
| 20260503201734 | 61 | 153 | 0.0 | 0.0 | 0.00 | 0.20 | 0.20 | 87 | 1010.0 |
| 20260503201134 | 61 | 153 | 0.0 | 0.0 | 0.00 | 0.20 | 0.20 | 87 | 1009.9 |
| 20260503200533 | 61 | 153 | 0.0 | 0.0 | 0.00 | 0.20 | 0.20 | 87 | 1009.8 |
| 20260503195934 | 61 | 153 | 0.0 | 0.0 | 0.00 | 0.20 | 0.20 | 86 | 1009.7 |
| 20260503195333 | 61 | 153 | 0.0 | 0.0 | 0.00 | 0.20 | 0.20 | 85 | 1009.6 |
| 20260503194732 | 62 | 153 | 0.0 | 0.0 | 0.00 | 0.20 | 0.20 | 85 | 1009.5 |
| 20260503194132 | 62 | 153 | 0.0 | 0.0 | 0.00 | 0.20 | 0.20 | 84 | 1009.4 |
| 20260503193531 | 62 | 153 | 0.0 | 0.0 | 0.00 | 0.20 | 0.20 | 84 | 1009.2 |
| 20260503192932 | 62 | 153 | 0.0 | 0.0 | 0.00 | 0.20 | 0.20 | 84 | 1009.2 |
| 20260503192331 | 62 | 153 | 0.0 | 0.0 | 0.00 | 0.20 | 0.20 | 83 | 1009.0 |
| 20260503191730 | 62 | 153 | 0.0 | 0.0 | 0.00 | 0.20 | 0.20 | 83 | 1008.9 |
| 20260503191130 | 62 | 153 | 0.0 | 0.0 | 0.00 | 0.20 | 0.20 | 83 | 1008.8 |
| 20260503190530 | 62 | 153 | 0.0 | 0.0 | 0.00 | 0.20 | 0.20 | 83 | 1008.8 |
| 20260503185929 | 62 | 154 | 0.0 | 0.0 | 0.00 | 0.20 | 0.20 | 83 | 1008.8 |
| 20260503185329 | 63 | 154 | 0.0 | 1.0 | 0.00 | 0.20 | 0.20 | 82 | 1008.8 |
| 20260503184729 | 63 | 154 | 0.0 | 3.0 | 0.00 | 0.20 | 0.20 | 82 | 1008.6 |
| 20260503184129 | 63 | 155 | 0.0 | 1.0 | 0.00 | 0.20 | 0.20 | 82 | 1008.7 |
| 20260503183528 | 63 | 178 | 0.0 | 1.0 | 0.00 | 0.20 | 0.20 | 83 | 1008.7 |
| 20260503182928 | 63 | 97 | 0.0 | 1.0 | 0.00 | 0.20 | 0.20 | 83 | 1008.8 |
| 20260503182327 | 62 | 97 | 0.0 | 0.0 | 0.00 | 0.20 | 0.20 | 82 | 1008.8 |
| 20260503181727 | 62 | 97 | 0.0 | 0.0 | 0.00 | 0.20 | 0.20 | 82 | 1008.7 |
| 20260503181127 | 62 | 97 | 0.0 | 0.0 | 0.00 | 0.20 | 0.20 | 81 | 1008.8 |
| 20260503180526 | 62 | 98 | 0.0 | 2.0 | 0.00 | 0.20 | 0.20 | 80 | 1008.8 |
| 20260503175926 | 62 | 105 | 0.0 | 1.0 | 0.00 | 0.20 | 0.20 | 79 | 1008.9 |
| 20260503175326 | 63 | 93 | 0.0 | 0.0 | 0.00 | 0.20 | 0.20 | 78 | 1008.8 |
| 20260503174725 | 63 | 93 | 0.0 | 0.0 | 0.00 | 0.20 | 0.20 | 78 | 1008.8 |
| 20260503174125 | 62 | 93 | 1.0 | 1.0 | 0.00 | 0.20 | 0.20 | 78 | 1008.6 |
| 20260503173525 | 62 | 95 | 0.0 | 3.0 | 0.00 | 0.20 | 0.20 | 78 | 1008.5 |
| 20260503172924 | 62 | 92 | 0.0 | 2.0 | 0.00 | 0.20 | 0.20 | 78 | 1008.7 |
| 20260503172324 | 62 | 90 | 0.0 | 2.0 | 0.00 | 0.20 | 0.20 | 77 | 1008.8 |
| 20260503171724 | 62 | 97 | 1.0 | 6.0 | 0.00 | 0.20 | 0.20 | 78 | 1008.9 |
| 20260503171123 | 62 | 82 | 1.0 | 4.0 | 0.00 | 0.20 | 0.20 | 77 | 1008.8 |
| 20260503170523 | 63 | 95 | 1.0 | 3.0 | 0.00 | 0.20 | 0.20 | 78 | 1008.8 |
| 20260503150516 | 69 | 264 | 3.0 | 10.0 | 0.00 | 0.20 | 0.20 | 70 | 1008.9 |